Regional Weather Roundup
Issued by NWS

Home | Current Version | Previous Version | Text Only | Print | Product List | Glossary On
Versions: 1 2 3 4 5 6 7 8 9 10 11 12 13 14 15 16 17 18 19 20 21 22 23 24 25 26 27 28 29 30 31 32 33 34 35 36 37 38 39 40 41 42 43 44 45 46 47 48 49 50
000
ASCA42 TJSJ 161511
RWRPR
PUERTO RICO/U.S. VIRGIN ISLANDS HOURLY WEATHER ROUNDUP
NATIONAL WEATHER SERVICE SAN JUAN PR
1100 AM AST TUE SEP 16 2014

PRZ001-004-161600-
PUERTO RICO

CITY           SKY/WX    TMP DP  RH WIND       PRES   REMARKS
SAN JUAN LMM   MOSUNNY   88  75  66 N10       30.02S HX  97
MAYAGUEZ       MOSUNNY   84  70  61 W5        30.03
AGUADILLA      SUNNY     86  73  66 NE12      30.03S HX  93
CEIBA          MOSUNNY   86  73  66 E7        30.05S HX  93
$$

PRZ006-007-161600-
U.S. VIRGIN ISLANDS

CITY           SKY/WX    TMP DP  RH WIND       PRES   REMARKS
CHRISTIANSTED  MOSUNNY   88  73  62 E12       30.02  HX  96
$$

HOURLY WEATHER ROUNDUP FOR THE NEWS MEDIA

CITY           SKY/WX    TMP DP  RH WIND       PRES   REMARKS
MIAMI          PTSUNNY   87  72  60 SE5       30.07F HX  93
ORLANDO        PTSUNNY   86  72  62 N7        30.10S HX  92
NEW YORK       LGT RAIN  60  57  89 N8        30.03R
NEWARK         LGT RAIN  59  57  94 NE8       30.01F
CHICAGO        MOSUNNY   58  47  66 CALM      30.22R
HARTFORD       MOSUNNY   68  53  58 SE6       30.00S
BOSTON         CLOUDY    62  50  64 CALM      30.01F
DALLAS         PTSUNNY   80  71  74 E5        30.13R
PHILADELPHIA   MOSUNNY   69  58  67 NW14      30.01S


USA.gov is the U.S. government's official web portal to all federal, state and local government web resources and services.